Weather Roundup
Issued by NWS Springfield, MO

Home | Current Version | Previous Version | Text Only | Print | Product List | Glossary On
Versions: 1 2 3 4 5 6 7 8 9 10 11 12 13 14 15 16 17 18 19 20 21 22 23 24 25 26 27 28 29 30 31 32 33 34 35 36 37 38 39 40 41 42 43 44 45 46 47 48 49 50
927
NZUS99 KSGF 090307
HRRSGF

HOURLY WEATHER
NATIONAL WEATHER SERVICE SPRINGFIELD MO
900 PM CST MON FEB 08 2016

......SGF CWA......

CITY           SKY/WX    TMP DP  RH WIND       PRES   REMARKS
SPRINGFIELD    PTCLDY    30  13  49 NW16G26   30.03S WCI  19
JOPLIN         CLEAR     31  15  52 NW13      30.12F WCI  21
WEST PLAINS    FLURRIES  28  19  69 NW15G26   29.99S WCI  16
ROLLA          CLOUDY    23  15  71 W15G25    29.95F WCI  10
OSAGE BEACH    CLOUDY    27  12  54 NW13G21   30.02F WCI  16
BRANSON        CLEAR     32  14  47 NW17G25   30.04F WCI  21

......SURROUNDING SGF CWA......

CITY           SKY/WX    TMP DP  RH WIND       PRES   REMARKS
CHANUTE        PTCLDY    33  16  49 NW10      30.15R WCI  25
PARSONS        MOCLDY    33  16  49 NW7       30.17S WCI  27
COFFEYVILLE    PTCLDY    35  16  45 NW8       30.18R WCI  29
EMPORIA        MOCLDY    33  17  51 NW12      30.15S WCI  24
GROVE OK       PTCLDY    36  18  48 NW9       30.16S WCI  29
ROGERS AR      CLEAR     32  15  49 NW14      30.10R WCI  22
SILOAM SPRINGS CLEAR     34  10  37 NW14      30.13S WCI  24
HARRISON AR    CLEAR     31  14  49 NW13G23   30.03S WCI  21
NEAR YELLVILLE PTCLDY    34  12  40 NW8G21    30.03R WCI  27

......KANSAS AND MISSOURI......

CITY           SKY/WX    TMP DP  RH WIND       PRES   REMARKS
KANSAS CTY INT MOCLDY    27  17  66 NW12      30.08F WCI  17
DOWNTOWN KC    PTCLDY    30  16  56 N10G20    30.10S WCI  21
COLUMBIA       CLOUDY    23  14  68 NW16      29.99F WCI  10
SEDALIA        CLOUDY    28  16  60 NW18G26   30.04F WCI  15
ST JOSEPH      PTCLDY    27  17  66 N10       30.10F WCI  17
ST LOUIS       FLURRIES  24  13  62 NW14G25   29.95S WCI  12
SPIRIT OF STL  CLOUDY    24  13  62 NW17      29.96S WCI  11
KIRKSVILLE     FLURRIES  20  11  68 NW15      29.98F WCI   6
WICHITA        PTCLDY    34  19  54 NW16      30.21S WCI  24
TOPEKA         CLOUDY    32  17  54 W6        30.13R WCI  26
OLATHE         PTCLDY    28  15  58 NW15      30.09S WCI  16

......TENNESSEE......

CITY           SKY/WX    TMP DP  RH WIND       PRES   REMARKS
MEMPHIS        CLOUDY    38  19  46 NW10G22   30.00F WCI  31
NASHVILLE      LGT SNOW  30  23  75 NW9       29.90S WCI  22

......ARKANSAS.......

CITY           SKY/WX    TMP DP  RH WIND       PRES   REMARKS
FAYETTEVILLE   CLEAR     32  14  47 NW10      30.11S WCI  24
FT SMITH       CLEAR     41  10  28 NW14G25   30.15R
LITTLE ROCK    CLEAR     39  16  39 W8        30.08S WCI  33

......OKLAHOMA.......

CITY           SKY/WX    TMP DP  RH WIND       PRES   REMARKS
TULSA          CLEAR     39  16  39 NW12      30.19S WCI  32
PONCA CITY     CLEAR     35  17  47 MISG      30.24S
MCALESTER      CLEAR     42  13  30 NW15G23   30.21S
OKLAHOMA CITY  PTCLDY    38  12  34 N14       30.25S WCI  30

......IOWA............

CITY           SKY/WX    TMP DP  RH WIND       PRES   REMARKS
DES MOINES     FLURRIES  19   9  65 NW22G33   30.00S WCI   2
QUAD CITIES    FLURRIES  18   9  68 NW20G25   29.88S WCI   2

......ILLINOIS........

CITY           SKY/WX    TMP DP  RH WIND       PRES   REMARKS
QUINCY         FLURRIES  18  10  71 NW17      29.95S WCI   3
CHICAGO        LGT SNOW  24  19  81 NW13      29.74S WCI  12




USA.gov is the U.S. government's official web portal to all federal, state and local government web resources and services.